Biloxi, MS

10:42 PM CDT on May 25, 2017 (GMT -0500)
Keesler Air Force Base

Weather History for KBIX - October, 2014

Change the Weather History Date:

Monday, October 27, 2014

  Actual Average Record
Temperature  
Mean Temperature 69 °F -  
Max Temperature 78 °F 77 °F 86 °F (1969)
Min Temperature 60 °F 55 °F 35 °F (1957)
Cooling Degree Days 4    
Growing Degree Days 19 (Base 50)    
Moisture  
Dew Point 65 °F    
Average Humidity 96    
Maximum Humidity 100    
Minimum Humidity 68    
Precipitation  
Precipitation 0.00 in - - ()
Sea Level Pressure  
Sea Level Pressure 30.03 in    
Wind  
Wind Speed 1 mph (ENE)    
Max Wind Speed 9 mph    
Max Gust Speed -    
Visibility 4 miles    
Events Fog    
Averages and records for this station are not official NWS values.
T = Trace of Precipitation, MM = Missing Value Source: NWS Daily Summary

Daily Weather History Graph

Daily Weather History Graph

Search for Another Location

Airport or City:

Trip Planner

Search our weather history database for the weather conditions in past years. The results will help you decide how hot, cold, wet, or windy it might be!

Date:

Astronomy

Oct. 27, 2014 Rise Set
Actual Time 7:06 AM CDT 6:12 PM CDT
Civil Twilight 6:41 AM CDT 6:36 PM CDT
Nautical Twilight 6:13 AM CDT 7:05 PM CDT
Astronomical Twilight 5:45 AM CDT 7:33 PM CDT
Moon 10:33 AM CDT (10/27) 9:25 PM CDT (10/27)
Length of Visible Light 11h 55m
Length of Day
11h 06m
Waxing Crescent, 15% of the Moon is Illuminated
Oct 27
Waxing Crescent
Oct 30
First Quarter
Nov 6
Full
Nov 14
Last Quarter
Nov 22
New

Hourly Weather History & Observations

Time (CDT) Temp. Dew Point Humidity Pressure Visibility Wind Dir Wind Speed Gust Speed Precip Events Conditions
12:13 AM 66.2 °F 66.2 °F 100% 30.03 in 8.0 mi Calm Calm - N/A   Clear
12:28 AM 66.2 °F 66.2 °F 100% 30.02 in 10.0 mi Calm Calm - N/A   Clear
12:38 AM 66.2 °F 66.2 °F 100% 30.02 in 9.0 mi Calm Calm - N/A   Clear
12:48 AM 66.2 °F 66.2 °F 100% 30.02 in 10.0 mi Calm Calm - N/A   Clear
12:58 AM 66.4 °F 66.4 °F 100% 30.03 in 8.0 mi Calm Calm - N/A   Clear
1:08 AM 66.2 °F 66.2 °F 100% 30.02 in 4.0 mi Calm Calm - N/A   Clear
1:18 AM 66.2 °F 66.2 °F 100% 30.02 in 7.0 mi Calm Calm - N/A   Clear
1:23 AM 66.2 °F 66.2 °F 100% 30.02 in 7.0 mi Calm Calm - N/A   Clear
1:28 AM 66.2 °F 66.2 °F 100% 30.02 in 4.0 mi Calm Calm - N/A   Clear
1:33 AM 66.2 °F 66.2 °F 100% 30.02 in 3.0 mi Calm Calm - N/A   Clear
1:38 AM 66.2 °F 66.2 °F 100% 30.02 in 1.8 mi Calm Calm - N/A   Clear
1:43 AM 66.2 °F 66.2 °F 100% 30.02 in 0.5 mi Calm Calm - N/A Fog Fog
1:48 AM 66.2 °F 66.2 °F 100% 30.02 in 0.5 mi Calm Calm - N/A Fog Fog
1:58 AM 66.2 °F 66.2 °F 100% 30.04 in 0.5 mi Calm Calm - N/A Fog Fog
2:03 AM 66.2 °F 66.2 °F 100% 30.03 in 2.5 mi Calm Calm - N/A   Clear
2:08 AM 66.2 °F 66.2 °F 100% 30.02 in 6.0 mi North 1.2 mph - N/A   Clear
2:23 AM 66.2 °F 66.2 °F 100% 30.02 in 7.0 mi NNW 1.2 mph - N/A   Clear
2:38 AM 64.4 °F 64.4 °F 100% 30.02 in 6.0 mi Calm Calm - N/A   Clear
2:43 AM 64.4 °F 64.4 °F 100% 30.02 in 1.0 mi Calm Calm - N/A   Clear
2:48 AM 64.4 °F 64.4 °F 100% 30.02 in 0.5 mi Calm Calm - N/A Fog Fog
2:53 AM 66.2 °F 66.2 °F 100% 30.02 in 1.0 mi Calm Calm - N/A   Clear
2:58 AM 66.2 °F 66.2 °F 100% 30.03 in 3.0 mi Calm Calm - N/A   Clear
3:03 AM 66.2 °F 66.2 °F 100% 30.02 in 4.0 mi Calm Calm - N/A   Clear
3:13 AM 64.4 °F 64.4 °F 100% 30.02 in 1.0 mi Calm Calm - N/A   Clear
3:18 AM 64.4 °F 64.4 °F 100% 30.02 in 0.5 mi Calm Calm - N/A Fog Fog
3:23 AM 64.4 °F 64.4 °F 100% 30.02 in 0.5 mi Calm Calm - N/A Fog Fog
3:28 AM 64.4 °F 64.4 °F 100% 30.02 in 1.2 mi Calm Calm - N/A   Clear
3:33 AM 64.4 °F 64.4 °F 100% 30.02 in 1.8 mi Calm Calm - N/A   Clear
3:38 AM 66.2 °F 66.2 °F 100% 30.02 in 4.0 mi Calm Calm - N/A   Clear
3:48 AM 64.4 °F 64.4 °F 100% 30.02 in 4.0 mi Calm Calm - N/A   Clear
3:53 AM 64.4 °F 64.4 °F 100% 30.02 in 2.5 mi Calm Calm - N/A   Clear
3:58 AM 63.9 °F 63.9 °F 100% 30.03 in 1.8 mi Calm Calm - N/A   Clear
4:03 AM 64.4 °F 64.4 °F 100% 30.02 in 1.2 mi Calm Calm - N/A   Clear
4:08 AM 64.4 °F 64.4 °F 100% 30.02 in 0.5 mi Calm Calm - N/A Fog Fog
4:13 AM 64.4 °F 64.4 °F 100% 30.02 in 0.5 mi Calm Calm - N/A Fog Fog
4:18 AM 64.4 °F 64.4 °F 100% 30.02 in 1.2 mi Calm Calm - N/A   Clear
4:23 AM 64.4 °F 64.4 °F 100% 30.02 in 6.0 mi Calm Calm - N/A   Clear
4:28 AM 64.4 °F 64.4 °F 100% 30.02 in 2.5 mi Calm Calm - N/A   Clear
4:33 AM 64.4 °F 64.4 °F 100% 30.02 in 1.8 mi Calm Calm - N/A   Clear
4:38 AM 64.4 °F 64.4 °F 100% 30.02 in 3.0 mi Calm Calm - N/A   Clear
4:43 AM 64.4 °F 64.4 °F 100% 30.02 in 5.0 mi Calm Calm - N/A   Clear
4:48 AM 64.4 °F 64.4 °F 100% 30.02 in 5.0 mi ENE 1.2 mph - N/A   Clear
4:58 AM 64.4 °F 64.4 °F 100% 30.03 in 2.0 mi ENE 2.3 mph - N/A   Clear
5:03 AM 64.4 °F 64.4 °F 100% 30.02 in 0.8 mi ENE 2.3 mph - N/A   Clear
5:08 AM 62.6 °F 62.6 °F 100% 30.02 in 0.5 mi ENE 2.3 mph - N/A Fog Fog
5:23 AM 62.6 °F 62.6 °F 100% 30.03 in 0.5 mi NE 2.3 mph - N/A Fog Fog
5:28 AM 62.6 °F 62.6 °F 100% 30.03 in 1.2 mi NE 2.3 mph - N/A   Clear
5:33 AM 62.6 °F 62.6 °F 100% 30.03 in 0.8 mi NE 2.3 mph - N/A   Clear
5:38 AM 62.6 °F 62.6 °F 100% 30.03 in 0.8 mi NNE 2.3 mph - N/A   Clear
5:43 AM 62.6 °F 62.6 °F 100% 30.03 in 2.0 mi NNE 1.2 mph - N/A   Clear
5:48 AM 62.6 °F 62.6 °F 100% 30.03 in 3.0 mi NNE 1.2 mph - N/A   Clear
5:53 AM 62.6 °F 62.6 °F 100% 30.03 in 4.0 mi NNE 2.3 mph - N/A   Clear
5:58 AM 63.5 °F 63.5 °F 100% 30.04 in 4.0 mi NNE 2.3 mph - N/A   Clear
6:13 AM 62.6 °F 62.6 °F 100% 30.03 in 5.0 mi NNE 2.3 mph - N/A   Clear
6:18 AM 62.6 °F 62.6 °F 100% 30.03 in 5.0 mi NNE 2.3 mph - N/A   Clear
6:23 AM 62.6 °F 62.6 °F 100% 30.03 in 3.0 mi NE 2.3 mph - N/A   Clear
6:28 AM 62.6 °F 62.6 °F 100% 30.03 in 1.0 mi Calm Calm - N/A   Clear
6:38 AM 62.6 °F 62.6 °F 100% 30.03 in 4.0 mi East 1.2 mph - N/A   Clear
6:43 AM 62.6 °F 62.6 °F 100% 30.04 in 2.0 mi ENE 2.3 mph - N/A   Clear
6:48 AM 62.6 °F 62.6 °F 100% 30.04 in 0.8 mi ENE 1.2 mph - N/A   Clear
6:53 AM 62.6 °F 62.6 °F 100% 30.04 in 0.5 mi NNE 2.3 mph - N/A Fog Fog
6:58 AM 62.6 °F 62.6 °F 100% 30.05 in 1.0 mi NE 2.3 mph - N/A   Clear
7:03 AM 62.6 °F 62.6 °F 100% 30.04 in 1.5 mi NNE 3.5 mph - N/A   Clear
7:08 AM 62.6 °F 62.6 °F 100% 30.04 in 0.2 mi NNE 3.5 mph - N/A Fog Fog
7:13 AM 60.8 °F 60.8 °F 100% 30.04 in 0.2 mi NE 3.5 mph - N/A Fog Fog
7:23 AM 60.8 °F 60.8 °F 100% 30.04 in 0.2 mi NE 2.3 mph - N/A Fog Fog
7:28 AM 60.8 °F 60.8 °F 100% 30.04 in 0.5 mi NE 3.5 mph - N/A Fog Fog
7:33 AM 60.8 °F 60.8 °F 100% 30.04 in 0.2 mi ENE 2.3 mph - N/A Fog Fog
7:38 AM 60.8 °F 60.8 °F 100% 30.05 in 0.2 mi NE 3.5 mph - N/A Fog Fog
7:58 AM 61.9 °F 61.9 °F 100% 30.06 in 0.2 mi ENE 3.5 mph - N/A Fog Fog
8:03 AM 62.6 °F 62.6 °F 100% 30.05 in 0.5 mi NE 2.3 mph - N/A Fog Fog
8:08 AM 62.6 °F 62.6 °F 100% 30.05 in 0.8 mi Calm Calm - N/A   Clear
8:26 AM 64.4 °F 64.4 °F 100% 30.06 in 0.8 mi NE 1.2 mph - N/A   Mist
8:31 AM 64.4 °F 64.4 °F 100% 30.06 in 1.8 mi NE 1.2 mph - N/A   Partly Cloudy
8:49 AM 64.4 °F 64.4 °F 100% 30.06 in 5.0 mi Calm Calm - N/A   Clear
8:58 AM 65.7 °F 65.7 °F 100% 30.07 in 7.0 mi Calm Calm - N/A   Clear
9:58 AM 72.3 °F 72.3 °F 100% 30.08 in 10.0 mi Variable 2.3 mph - N/A   Clear
10:58 AM 77.2 °F 65.8 °F 68% 30.08 in 10.0 mi Variable 5.8 mph - N/A   Clear
11:58 AM 77.9 °F 67.1 °F 69% 30.08 in 10.0 mi SSW 6.9 mph - N/A   Clear
12:58 PM 77.7 °F 67.1 °F 70% 30.06 in 10.0 mi South 5.8 mph - N/A   Clear
1:58 PM 78.6 °F 68.2 °F 70% 30.04 in 10.0 mi SSW 8.1 mph - N/A   Partly Cloudy
2:58 PM 78.4 °F 68.5 °F 72% 30.03 in 10.0 mi South 9.2 mph - N/A   Clear
3:58 PM 77.7 °F 68.4 °F 73% 30.03 in 10.0 mi South 5.8 mph - N/A   Clear
4:58 PM 76.6 °F 68.4 °F 75% 30.03 in 10.0 mi South 5.8 mph - N/A   Clear
5:58 PM 74.7 °F 67.5 °F 78% 30.03 in 10.0 mi SSW 5.8 mph - N/A   Clear
6:58 PM 72.7 °F 66.6 °F 81% 30.04 in 10.0 mi South 3.5 mph - N/A   Clear
7:58 PM 73.2 °F 67.3 °F 82% 30.05 in 10.0 mi SSW 5.8 mph - N/A   Clear
8:58 PM 72.7 °F 67.6 °F 84% 30.05 in 10.0 mi South 3.5 mph - N/A   Clear
9:58 PM 72.5 °F 67.1 °F 83% 30.06 in 10.0 mi South 5.8 mph - N/A   Clear
10:58 PM 73.0 °F 67.6 °F 83% 30.06 in 10.0 mi South 8.1 mph - N/A   Clear
11:58 PM 73.0 °F 67.8 °F 84% 30.07 in 10.0 mi South 6.9 mph - N/A   Partly Cloudy